Location: De Har
(53.3413°N, 6.6858°E)
Time: 20:43:19
(UTC+00:00)

Cosmos 2219 Rocket - Pass Details

Date: 22 April 2026
Orbit: 826 x 846 km, 71.0° (Epoch: 21 May)

Event Time Altitude Azimuth Distance (km) Brightness Sun altitude
Rises 01:12:17 0° 328° (NNW) 3,391 5.8 -21.1°
Reaches altitude 10° 01:14:50 10° 334° (NNW) 2,457 5.1 -20.9°
Maximum altitude 01:20:16 47° 48° (NE) 1,104 3.2 -20.5°
Drops below altitude 10° 01:25:41 10° 122° (ESE) 2,457 4.6 -20.1°
Sets 01:28:14 0° 129° (SE) 3,391 5.3 -19.9°
